Погода в Сафоново

Россия / Липецкая область     52°08′14″N   40°36′53″E
темп.,
°C
ветер,
м/с
пор.,
м/с
влажн.,
%
обл.,
%
осадки,
мм/ч
давл.,
гПа
погр.,
м
8 марта, пн
пн800:00−1зюз101790100 0.2 10021023
03:00−4зюз51188100 0.9 1003289
06:00−5юз5118599 0.0 1003238
09:00−3зюз61285100 0.0 1003631
12:00−2з71179100 0.0 10041377
15:00−2з6107992 0.1 10051151
18:00−6зсз348752 0.0 100775
21:00−9зсз229031 0.0 100921
9 марта, вт
вт900:00−12зюз00920 0.0 101021
03:00−10сз119232 0.0 101021
06:00−11с339299 0.1 101056
09:00−11ссз349497 0.1 1012176
12:00−9ссз4592100 0.1 1013427
15:00−8сз5687100 0.1 1015810
18:00−12сз489294 0.1 1016198
21:00−15сз489557 0.1 1019138
10 марта, ср
ср1000:00−17сз47960 0.0 1021108
03:00−18сз359718 0.0 102287
06:00−20сз369987 0.0 1024104
09:00−19сз489475 0.0 1025296
12:00−17сз469081 0.0 1026462
15:00−16сз468790 0.0 1027529
18:00−19ссз359491 0.0 102884
21:00−22ссз349557 0.0 103042
11 марта, чт
чт1100:00−23ссз33950 0.0 103121
03:00−24сз23950 0.0 103220
06:00−23сз23940 0.0 103220
09:00−19сз36910 0.0 1033210
12:00−16сз35910 0.0 1033333
15:00−13сз248844 0.0 1033414
18:00−16сз239351 0.0 103320
21:00−18сз229526 0.0 103420
12 марта, пт
пт1200:00−20зсз11990 0.0 103420
03:00−20ю12980 0.0 103420
06:00−20ююз22960 0.0 103420
09:00−16ююв35910 0.0 1034144
12:00−11ю588618 0.0 1032403
15:00−8ю598159 0.0 1031706
18:00−10ююв61281100 0.0 1028323
21:00−9ю71575100 0.0 1028440